Saginaw Browne, MI

12:37 PM EST on November 22, 2019 (GMT -0500)
Saginaw County-Browne

Weather History for KHYX - October, 2019

Change the Weather History Date:

Monday, October 21, 2019

  Actual Average (WUND) Record (WUND)
Temperature  
Mean Temperature 52 °F -  
Max Temperature 62 °F - - (-1)
Min Temperature 42 °F - - (-1)
Degree Days  
Heating Degree Days 13    
Growing Degree Days 2 (Base 50)    
Moisture  
Dew Point 49 °F    
Average Humidity 85    
Maximum Humidity 94    
Minimum Humidity 72    
Precipitation  
Precipitation 0.00 in - - ()
Sea Level Pressure  
Sea Level Pressure 29.79 in    
Wind  
Wind Speed 8 mph ()    
Max Wind Speed 23 mph    
Max Gust Speed 30 mph    
Visibility 7.7 miles    
Events Rain    
Averages and records for this station are not official NWS values.
T = Trace of Precipitation, MM = Missing Value Source: Averaged Metar Reports

Daily Weather History Graph

Daily Weather History Graph

Search for Another Location

Airport or City:

Astronomy

Oct. 21, 2019 Rise Set
Actual Time 7:56 AM EDT 6:42 PM EDT
Civil Twilight 7:27 AM EDT 7:11 PM EDT
Nautical Twilight 6:54 AM EDT 7:45 PM EDT
Astronomical Twilight 6:21 AM EDT 8:18 PM EDT
Moon No Moon Rise 3:19 PM EDT (10/21)
Length of Visible Light 11h 44m
Length of Day
10h 46m
Waning Gibbous, 48% of the Moon is Illuminated
Oct 21
Waning Gibbous
Oct 27
New
Nov 4
First Quarter
Nov 12
Full
Nov 19
Last Quarter

Hourly Weather History & Observations

Time (EDT) Temp. Windchill Dew Point Humidity Pressure Visibility Wind Dir Wind Speed Gust Speed Precip Events Conditions
12:15 AM 48.2 °F - 44.6 °F 87% 29.99 in 10.0 mi NNE 4.6 mph - N/A   Clear
12:20 AM 46.4 °F 45.2 °F 44.6 °F 93% 29.99 in 10.0 mi NE 3.5 mph - N/A   Clear
12:38 AM 46.4 °F 44.3 °F 42.8 °F 87% 29.99 in 10.0 mi NNE 4.6 mph - N/A   Clear
12:56 AM 44.6 °F - 42.8 °F 93% 30.00 in 7.0 mi Calm Calm - N/A   Clear
1:15 AM 44.6 °F 43.1 °F 42.8 °F 93% 30.00 in 7.0 mi NE 3.5 mph - N/A   Clear
1:35 AM 44.6 °F 42.2 °F 42.8 °F 93% 29.99 in 7.0 mi NE 4.6 mph - N/A   Clear
1:36 AM 44.6 °F 42.2 °F 42.8 °F 93% 29.99 in 7.0 mi ENE 4.6 mph - N/A   Clear
1:59 AM 44.6 °F - 42.8 °F 93% 29.99 in 7.0 mi Calm Calm - N/A   Clear
2:17 AM 44.6 °F - 42.8 °F 93% 29.99 in 7.0 mi Calm Calm - N/A   Clear
2:35 AM 44.6 °F - 42.8 °F 93% 29.99 in 7.0 mi Calm Calm - N/A   Clear
2:55 AM 42.8 °F 41.1 °F 41.0 °F 93% 29.99 in 5.0 mi NNE 3.5 mph - N/A   Scattered Clouds
2:56 AM 42.8 °F - 41.0 °F 93% 29.99 in 5.0 mi Calm Calm - N/A   Scattered Clouds
3:15 AM 42.8 °F - 41.0 °F 93% 29.99 in 5.0 mi Calm Calm - N/A   Clear
3:37 AM 42.8 °F 40.1 °F 41.0 °F 93% 29.98 in 7.0 mi NE 4.6 mph - N/A   Clear
3:56 AM 42.8 °F 40.1 °F 41.0 °F 93% 29.97 in 7.0 mi NNE 4.6 mph - N/A   Clear
4:15 AM 42.8 °F 39.3 °F 41.0 °F 93% 29.95 in 5.0 mi NE 5.8 mph - N/A   Clear
4:16 AM 42.8 °F 39.3 °F 41.0 °F 93% 29.95 in 5.0 mi NE 5.8 mph - N/A   Clear
4:35 AM 42.8 °F 41.1 °F 41.0 °F 93% 29.96 in 5.0 mi NE 3.5 mph - N/A   Clear
4:36 AM 42.8 °F 41.1 °F 41.0 °F 93% 29.96 in 5.0 mi NE 3.5 mph - N/A   Clear
4:58 AM 42.8 °F 40.1 °F 41.0 °F 93% 29.97 in 5.0 mi NE 4.6 mph - N/A   Clear
5:17 AM 42.8 °F 38.6 °F 41.0 °F 93% 29.97 in 5.0 mi NE 6.9 mph - N/A   Clear
5:35 AM 42.8 °F 41.1 °F 41.0 °F 93% 29.97 in 5.0 mi ENE 3.5 mph - N/A   Clear
5:55 AM 42.8 °F 39.3 °F 41.0 °F 93% 29.96 in 5.0 mi ENE 5.8 mph - N/A   Clear
5:56 AM 42.8 °F 39.3 °F 41.0 °F 93% 29.96 in 7.0 mi ENE 5.8 mph - N/A   Clear
6:15 AM 42.8 °F 39.3 °F 41.0 °F 93% 29.96 in 5.0 mi NE 5.8 mph - N/A   Clear
6:20 AM 42.8 °F 40.1 °F 41.0 °F 93% 29.96 in 5.0 mi NE 4.6 mph - N/A   Clear
6:38 AM 42.8 °F 40.1 °F 41.0 °F 93% 29.96 in 5.0 mi NE 4.6 mph - N/A   Clear
6:56 AM 42.8 °F 38.6 °F 41.0 °F 93% 29.96 in 4.0 mi NE 6.9 mph - N/A   Mostly Cloudy
7:15 AM 42.8 °F 39.3 °F 41.0 °F 93% 29.96 in 3.0 mi NE 5.8 mph - N/A   Mostly Cloudy
7:35 AM 42.8 °F 38.6 °F 41.0 °F 93% 29.94 in 3.0 mi NE 6.9 mph - N/A   Mostly Cloudy
7:36 AM 42.8 °F 38.0 °F 41.0 °F 93% 29.94 in 3.0 mi NE 8.1 mph - N/A   Mostly Cloudy
7:59 AM 44.6 °F 40.7 °F 42.8 °F 93% 29.91 in 4.0 mi ENE 6.9 mph - N/A   Mostly Cloudy
8:17 AM 44.6 °F 40.7 °F 42.8 °F 93% 29.89 in 4.0 mi ENE 6.9 mph - N/A   Mostly Cloudy
8:35 AM 46.4 °F 43.5 °F 44.6 °F 93% 29.89 in 5.0 mi East 5.8 mph - N/A   Mostly Cloudy
8:55 AM 50.0 °F - 46.4 °F 87% 29.88 in 5.0 mi East 8.1 mph - N/A   Overcast
8:56 AM 50.0 °F - 46.4 °F 87% 29.88 in 5.0 mi East 8.1 mph - N/A   Overcast
9:15 AM 50.0 °F - 46.4 °F 87% 29.88 in 7.0 mi East 5.8 mph - N/A   Overcast
9:38 AM 51.8 °F - 46.4 °F 82% 29.88 in 7.0 mi ESE 4.6 mph - N/A   Overcast
9:56 AM 53.6 °F - 50.0 °F 88% 29.89 in 10.0 mi SE 9.2 mph - N/A   Overcast
10:15 AM 53.6 °F - 50.0 °F 88% 29.87 in 5.0 mi ESE 6.9 mph - N/A   Overcast
10:35 AM 55.4 °F - 50.0 °F 82% 29.85 in 10.0 mi ESE 11.5 mph - N/A   Overcast
10:36 AM 55.4 °F - 50.0 °F 82% 29.85 in 10.0 mi ESE 10.4 mph - N/A   Overcast
10:59 AM 55.4 °F - 50.0 °F 82% 29.84 in 10.0 mi SE 11.5 mph - N/A   Mostly Cloudy
11:17 AM 57.2 °F - 50.0 °F 77% 29.83 in 10.0 mi ESE 12.7 mph - N/A   Scattered Clouds
11:35 AM 59.0 °F - 51.8 °F 77% 29.82 in 10.0 mi ESE 11.5 mph - N/A   Scattered Clouds
11:55 AM 59.0 °F - 51.8 °F 77% 29.81 in 10.0 mi SE 11.5 mph 18.4 mph N/A   Mostly Cloudy
11:56 AM 59.0 °F - 51.8 °F 77% 29.81 in 10.0 mi SE 12.7 mph 18.4 mph N/A   Mostly Cloudy
12:15 PM 59.0 °F - 51.8 °F 77% 29.81 in 10.0 mi SE 12.7 mph 18.4 mph N/A   Overcast
12:20 PM 60.8 °F - 51.8 °F 72% 29.81 in 10.0 mi SE 16.1 mph 19.6 mph N/A   Overcast
12:38 PM 60.8 °F - 51.8 °F 72% 29.80 in 10.0 mi SE 16.1 mph 20.7 mph N/A   Overcast
12:56 PM 60.8 °F - 51.8 °F 72% 29.79 in 10.0 mi SE 15.0 mph 18.4 mph N/A   Mostly Cloudy
1:15 PM 60.8 °F - 53.6 °F 77% 29.77 in 10.0 mi ESE 13.8 mph 18.4 mph N/A   Scattered Clouds
1:16 PM 60.8 °F - 53.6 °F 77% 29.77 in 10.0 mi ESE 11.5 mph 18.4 mph N/A   Scattered Clouds
1:35 PM 60.8 °F - 53.6 °F 77% 29.74 in 10.0 mi ESE 12.7 mph 18.4 mph N/A   Mostly Cloudy
1:36 PM 60.8 °F - 53.6 °F 77% 29.74 in 10.0 mi ESE 11.5 mph 18.4 mph N/A   Mostly Cloudy
1:59 PM 62.6 °F - 53.6 °F 72% 29.73 in 10.0 mi SE 16.1 mph 23.0 mph N/A   Mostly Cloudy
2:17 PM 62.6 °F - 53.6 °F 72% 29.73 in 10.0 mi SE 13.8 mph 24.2 mph N/A   Mostly Cloudy
2:35 PM 62.6 °F - 53.6 °F 72% 29.73 in 10.0 mi SE 18.4 mph 21.9 mph N/A Rain Light Rain
2:55 PM 60.8 °F - 53.6 °F 77% 29.71 in 10.0 mi ESE 15.0 mph 25.3 mph N/A Rain Light Rain
3:15 PM 60.8 °F - 53.6 °F 77% 29.69 in 7.0 mi ESE 15.0 mph 20.7 mph N/A Rain Light Rain
3:20 PM 60.8 °F - 53.6 °F 77% 29.68 in 10.0 mi ESE 13.8 mph 20.7 mph N/A Rain Light Rain
3:38 PM 59.0 °F - 53.6 °F 82% 29.67 in 7.0 mi ESE 16.1 mph 23.0 mph N/A Rain Light Rain
3:56 PM 59.0 °F - 51.8 °F 77% 29.67 in 7.0 mi ESE 16.1 mph 21.9 mph N/A Rain Light Rain
4:15 PM 59.0 °F - 51.8 °F 77% 29.66 in 7.0 mi ESE 23.0 mph 26.5 mph N/A Rain Light Rain
4:35 PM 59.0 °F - 51.8 °F 77% 29.62 in 7.0 mi ESE 19.6 mph 28.8 mph N/A Rain Rain
4:36 PM 59.0 °F - 51.8 °F 77% 29.62 in 7.0 mi ESE 20.7 mph 28.8 mph N/A Rain Rain
4:59 PM 57.2 °F - 51.8 °F 82% 29.62 in 5.0 mi ESE 16.1 mph 29.9 mph N/A Rain Light Rain
5:17 PM 59.0 °F - 53.6 °F 82% 29.64 in 10.0 mi SE 18.4 mph 23.0 mph N/A Rain Light Rain
5:35 PM 59.0 °F - 53.6 °F 82% 29.63 in 10.0 mi SE 15.0 mph 23.0 mph N/A   Overcast
5:55 PM 59.0 °F - 53.6 °F 82% 29.64 in 10.0 mi SE 18.4 mph 23.0 mph N/A   Overcast
5:56 PM 59.0 °F - 53.6 °F 82% 29.64 in 10.0 mi SE 16.1 mph 23.0 mph N/A   Overcast
6:15 PM 59.0 °F - 53.6 °F 82% 29.64 in 5.0 mi SE 16.1 mph - N/A Rain Light Rain
6:20 PM 59.0 °F - 53.6 °F 82% 29.63 in 7.0 mi SE 16.1 mph 21.9 mph N/A Rain Light Rain
6:38 PM 59.0 °F - 53.6 °F 82% 29.62 in 10.0 mi SE 16.1 mph 24.2 mph N/A   Light Drizzle
7:15 PM 59.0 °F - 53.6 °F 82% 29.61 in 10.0 mi SE 13.8 mph 24.2 mph N/A Rain Rain
7:16 PM 59.0 °F - 53.6 °F 82% 29.61 in 10.0 mi SE 16.1 mph 24.2 mph N/A Rain Rain
7:35 PM 59.0 °F - 53.6 °F 82% 29.60 in 10.0 mi SE 17.3 mph - N/A   Overcast
7:36 PM 59.0 °F - 53.6 °F 82% 29.60 in 10.0 mi SE 18.4 mph - N/A   Overcast
7:55 PM 59.0 °F - 53.6 °F 82% 29.61 in 10.0 mi SSE 13.8 mph 20.7 mph N/A Rain Heavy Rain
8:00 PM 59.0 °F - 53.6 °F 82% 29.61 in 5.0 mi SSE 16.1 mph 20.7 mph N/A Rain Heavy Rain
8:18 PM 59.0 °F - 55.4 °F 88% 29.59 in 5.0 mi SE 15.0 mph - N/A Rain Light Rain
8:37 PM 59.0 °F - 55.4 °F 88% 29.59 in 7.0 mi SSE 10.4 mph - N/A Rain Light Rain
8:55 PM 59.0 °F - 55.4 °F 88% 29.58 in 7.0 mi SE 15.0 mph - N/A Rain Rain
9:15 PM 59.0 °F - 55.4 °F 88% 29.57 in 10.0 mi SSE 19.6 mph 27.6 mph N/A   Overcast
9:16 PM 59.0 °F - 55.4 °F 88% 29.57 in 10.0 mi SSE 19.6 mph 27.6 mph N/A   Overcast
9:35 PM 60.8 °F - 55.4 °F 82% 29.57 in 10.0 mi SSE 19.6 mph 29.9 mph N/A   Drizzle
9:40 PM 60.8 °F - 55.4 °F 82% 29.57 in 10.0 mi SSE 17.3 mph 29.9 mph N/A Rain Light Rain
9:58 PM 60.8 °F - 55.4 °F 82% 29.57 in 10.0 mi SSE 18.4 mph 23.0 mph N/A   Light Drizzle
10:16 PM 60.8 °F - 53.6 °F 77% 29.58 in 10.0 mi South 13.8 mph 25.3 mph N/A Rain Light Rain
10:35 PM 59.0 °F - 53.6 °F 82% 29.57 in 10.0 mi South 12.7 mph 18.4 mph N/A   Overcast
10:55 PM 59.0 °F - 51.8 °F 77% 29.57 in 10.0 mi South 10.4 mph - N/A   Overcast
11:19 PM 57.2 °F - 51.8 °F 82% 29.57 in 10.0 mi South 6.9 mph - N/A   Overcast
11:37 PM 57.2 °F - 53.6 °F 88% 29.58 in 10.0 mi South 5.8 mph - N/A   Mostly Cloudy
11:55 PM 55.4 °F - 53.6 °F 94% 29.57 in 10.0 mi SSE 6.9 mph - N/A   Scattered Clouds